Vertical_Velocity
-1 -1 0 -2 -1 1 -0 -0 -3 -2 -1 -1 -1 -1 -3 -3 1 1 -0 4 -2 1 -3 -3 1 5 5 -3 5 3 1 -1 -4 0 -8 2 -0 1 4 1 2 1 0 -2 -5
-0 -1 -1 -2 -2 0 1 -2 -0 -2 -1 -3 -1 -3 -2 -4 -5 -1 1 -2 3 -2 -3 -3 -5 3 -1 -0 4 6 5 -6 -3 -1 -0 -4 1 -1 1 -0 -1 1 2 8 5
-1 -1 -2 -0 -1 -2 -1 1 -1 -2 -1 -1 -2 -0 -4 -2 -3 3 1 -1 -1 1 1 -1 -0 2 2 1 0 -6 -7 -5 -1 1 3 0 -2 3 1 1 -4 -8 -2 3 4
-1 -1 -1 -1 0 -2 -1 -0 1 0 -0 -1 -3 -4 -6 -5 -6 3 -2 -8 -10 4 1 -2 -1 -1 2 1 -2 11 -2 2 -6 -6 2 -0 2 -5 4 -3 1 2 -2 -4 0
-1 -1 -1 1 -1 1 -3 3 0 -1 -1 -2 -2 -2 -8 -4 1 0 4 9 3 -7 -1 1 -0 1 1 1 2 9 -6 -1 0 0 -7 11 -4 -4 -4 4 2 1 6 1 4
-0 -2 2 -3 -3 2 -3 -2 1 -0 -1 -1 -2 -2 -3 -5 0 3 -0 -7 1 1 -4 2 -1 2 1 -0 6 -3 1 -3 -1 -4 0 10 -4 12 -1 3 4 3 3 6 1
-1 -2 -2 -5 -4 -4 -2 -5 -1 2 0 -1 -2 -3 -5 3 2 -2 -3 4 -0 2 -3 8 5 10 2 -1 -1 1 3 -1 -3 -5 -5 9 3 -1 1 1 2 2 3 3 2
-1 -0 -3 -8 -3 -6 -1 -4 -1 3 -2 -2 -3 -5 -2 1 -2 -2 2 -12 -4 -3 1 0 5 8 4 2 -2 -0 3 2 -12 1 -17 13 -13 -3 6 -5 1 3 4 3 -1
-1 -1 -0 -2 -5 -3 -3 -6 -3 2 -9 -5 -3 -4 -4 -2 -5 -6 1 -0 1 -1 -2 5 10 0 2 2 1 1 -2 1 -4 -1 -1 5 -3 -4 3 3 1 1 2 5 2
-2 -1 2 -3 -3 -3 -7 -6 -7 3 -3 -3 -1 -5 -6 -7 -5 -5 -0 -0 1 -1 -14 -1 2 1 -0 3 -1 -2 1 0 -1 -3 5 2 -2 1 1 0 -3 -1 1 4 0
-2 -2 -2 -1 -5 -4 -8 -17 -36 -15 -9 -2 -3 -3 -0 -5 10 -4 -5 -4 2 0 0 -2 -0 -2 -5 -2 -3 1 3 2 -3 -5 -2 -3 -1 -2 -0 6 3 2 2 3 0
-2 -2 -1 1 -0 -3 3 -10 -2 -5 -9 -0 0 -3 4 6 -6 -1 -4 2 1 0 -1 1 -2 -6 0 1 2 2 1 -3 -5 -2 -4 1 -4 -1 0 -1 -5 -5 2 -0 -1
-3 -2 -3 -5 1 2 -0 1 0 -0 1 -5 4 5 5 6 -0 -6 -1 0 2 -0 -0 2 -8 1 2 -0 4 -1 -0 -1 2 -2 -0 1 -3 2 -0 -0 4 8 6 6 -2
1 -3 -8 -4 -4 -2 -1 2 -0 -1 -6 -4 -8 -1 -16 3 -0 -2 3 4 -2 2 1 1 -2 2 0 -0 -1 0 -2 -0 0 0 -2 -3 -6 -1 1 1 1 2 3 2 4
-2 -1 0 -2 1 -2 4 0 -1 -2 -10 -22 -7 2 -6 5 2 -19 -4 4 1 -0 5 -10 -1 -1 2 -5 -2 -8 -0 -2 -1 -0 -1 -4 -8 -5 -1 2 1 2 3 0 6
-2 -4 -2 -2 5 2 3 2 0 -23 -13 -9 1 -6 -8 -4 -4 -9 -3 -6 1 2 1 -3 -2 1 3 -0 1 -0 -2 -1 -1 -1 -2 -2 -6 -3 -0 -0 2 2 4 3 3
2 -2 -1 -2 -8 1 4 1 -17 -14 -7 -8 -2 -1 1 -3 -6 -2 -2 -6 -3 -5 -4 -4 -1 -1 2 -3 -4 -6 -3 -1 -4 -2 -4 0 -4 3 -0 0 1 -2 3 4 4
1 -3 -1 -2 -1 0 -2 -14 -15 -3 -0 -3 1 -2 1 1 -3 -3 -2 -3 -3 -2 1 1 -21 -1 -3 2 1 -0 -2 -3 -2 -0 -0 1 1 -5 2 1 4 3 1 4 3
-4 1 2 1 -0 -1 -0 -9 -9 -2 -1 2 -7 -2 -3 -2 -1 -2 0 1 1 1 4 0 -5 -4 1 0 0 -2 -3 -0 -3 -1 -2 0 3 2 -0 1 -0 2 -1 1 2
-4 -1 -1 -1 -3 -2 -12 -3 -0 0 1 -2 0 1 1 -1 -3 -4 -2 -1 -1 2 2 -1 -1 -0 -5 -3 -6 1 -3 -9 -4 -4 -1 -1 0 -1 -1 1 1 1 0 -0 1
-2 -2 1 0 -4 -9 -6 -2 -0 -1 1 -2 -1 -0 -0 -1 -1 -1 -3 -10 -1 -5 1 1 -0 -13 -5 -3 2 -8 -4 -4 -5 -2 -1 -0 -1 -1 -1 -1 -1 -0 1 -1 -1
-1 -4 -1 -2 -14 1 -1 -3 3 -0 1 0 1 1 1 -0 0 0 -1 -3 2 5 -1 -2 2 -1 -2 -2 -0 0 0 -1 -5 -7 0 -2 -5 1 0 0 -0 1 0 1 2
-0 -2 -3 -2 -6 -1 -2 -0 1 -1 -0 -1 -0 -1 -0 0 -4 1 -0 -1 1 0 1 -4 -4 -4 -14 -12 -5 -1 -1 1 -1 -2 1 -4 -6 0 -1 -1 1 -1 1 -0 1
-1 -6 -4 -5 0 -4 -1 -0 -2 0 1 -0 -1 -1 -1 -1 -1 -3 -1 -3 -1 1 1 0 -0 -3 2 -3 1 -1 -1 -1 -1 -3 -2 -2 -0 -2 1 0 1 1 1 1 0
-1 -2 0 -3 -3 -0 -1 -1 -0 -2 -0 0 -0 -1 1 0 -1 -0 -1 -5 -3 -0 -3 -4 -0 0 -1 -0 0 1 0 -1 -2 0 -5 -4 -1 1 1 -1 -1 0 0 0 0
-2 -4 -1 0 1 -1 -1 -2 -0 -2 -2 -2 -2 -1 1 -0 -3 0 4 1 2 -7 -1 -3 -3 -0 -2 -1 -0 -0 -0 -0 -0 -0 -1 -1 1 1 1 1 0 0 0 0 0
0 1 -0 1 1 -3 -3 -2 -2 -1 -2 -1 -1 0 1 -4 2 -3 1 -0 -1 4 0 -1 -0 -2 -3 0 -2 -7 -1 0 -0 -0 2 -1 1 0 1 0 -0 0 -0 1 1
Height
1546 1544 1542 1539 1536 1534 1531 1527 1523 1520 1517 1513 1509 1506 1502 1500 1498 1495 1494 1496 1496 1495 1495 1494 1495 1495 1494 1493 1495 1496 1500 1490 1484 1484 1478 1473 1474 1474 1475 1473 1473 1474 1474 1477 1488
1547 1544 1541 1539 1536 1533 1530 1526 1522 1518 1514 1510 1506 1502 1499 1496 1495 1495 1497 1495 1497 1496 1495 1493 1492 1492 1491 1489 1490 1488 1487 1478 1476 1476 1476 1475 1475 1474 1474 1474 1474 1473 1475 1478 1485
1547 1544 1541 1538 1536 1533 1528 1524 1520 1516 1512 1507 1503 1500 1498 1495 1494 1497 1498 1498 1498 1496 1495 1494 1493 1492 1490 1488 1483 1480 1472 1473 1474 1475 1476 1476 1477 1473 1471 1472 1471 1469 1474 1479 1483
1547 1544 1541 1538 1535 1531 1526 1522 1518 1513 1509 1504 1501 1498 1496 1496 1502 1499 1499 1498 1498 1496 1494 1493 1493 1493 1488 1486 1484 1482 1464 1473 1474 1476 1478 1478 1477 1476 1471 1469 1467 1468 1470 1476 1482
1546 1544 1541 1537 1533 1528 1524 1520 1515 1510 1506 1502 1499 1496 1495 1494 1497 1498 1498 1497 1496 1495 1494 1492 1491 1491 1489 1484 1481 1477 1470 1473 1473 1475 1476 1476 1474 1477 1471 1470 1468 1471 1473 1477 1483
1545 1542 1539 1535 1531 1526 1522 1518 1513 1507 1502 1499 1498 1496 1495 1496 1497 1497 1496 1495 1493 1491 1490 1490 1489 1488 1485 1481 1481 1476 1472 1470 1470 1472 1474 1474 1471 1475 1469 1469 1470 1471 1474 1478 1482
1544 1541 1537 1533 1529 1524 1520 1515 1509 1503 1500 1498 1497 1496 1496 1499 1497 1496 1494 1492 1489 1487 1484 1485 1485 1485 1482 1479 1476 1473 1471 1466 1466 1466 1467 1470 1472 1469 1468 1469 1469 1473 1476 1480 1483
1544 1540 1536 1532 1527 1522 1518 1513 1507 1501 1500 1498 1497 1497 1497 1497 1496 1495 1492 1488 1486 1483 1481 1480 1480 1479 1478 1476 1472 1473 1471 1469 1457 1461 1462 1469 1467 1464 1464 1465 1471 1473 1476 1480 1484
1543 1539 1535 1530 1525 1520 1516 1512 1505 1501 1498 1495 1497 1497 1499 1497 1495 1492 1488 1484 1480 1478 1476 1474 1475 1473 1474 1474 1474 1471 1473 1465 1458 1454 1458 1461 1462 1458 1460 1462 1467 1472 1476 1480 1482
1542 1538 1534 1528 1523 1519 1514 1510 1504 1503 1499 1497 1497 1499 1498 1495 1492 1488 1485 1481 1477 1474 1471 1470 1471 1471 1473 1473 1470 1472 1469 1461 1458 1448 1451 1453 1458 1453 1456 1459 1463 1469 1476 1479 1482
1540 1536 1533 1527 1522 1517 1511 1504 1503 1505 1502 1504 1503 1500 1497 1495 1489 1485 1481 1479 1474 1473 1472 1470 1473 1470 1465 1464 1465 1466 1463 1459 1453 1444 1447 1449 1461 1451 1451 1457 1462 1468 1473 1477 1483
1540 1535 1531 1526 1521 1517 1512 1507 1512 1514 1506 1502 1500 1499 1496 1493 1488 1486 1482 1476 1473 1472 1469 1469 1464 1458 1456 1461 1462 1462 1463 1458 1450 1445 1447 1452 1454 1451 1451 1454 1457 1463 1471 1476 1481
1539 1535 1530 1526 1522 1517 1512 1511 1510 1510 1511 1503 1501 1500 1496 1493 1490 1486 1481 1476 1475 1471 1470 1465 1457 1457 1454 1457 1458 1460 1459 1456 1457 1447 1444 1452 1455 1455 1454 1453 1459 1463 1467 1474 1476
1539 1534 1530 1526 1523 1518 1514 1512 1510 1510 1517 1511 1503 1502 1498 1491 1491 1489 1484 1480 1477 1473 1468 1462 1457 1454 1450 1450 1451 1466 1448 1450 1457 1452 1458 1451 1479 1457 1456 1459 1461 1464 1469 1475 1479
1538 1534 1530 1525 1524 1519 1516 1512 1510 1511 1538 1513 1507 1505 1502 1500 1495 1490 1487 1477 1478 1476 1473 1462 1455 1448 1448 1447 1445 1449 1446 1448 1452 1456 1451 1460 1468 1457 1458 1463 1464 1465 1470 1474 1479
1537 1533 1530 1527 1523 1520 1515 1511 1511 1525 1552 1519 1513 1509 1505 1499 1496 1492 1489 1481 1479 1475 1468 1463 1454 1452 1450 1447 1446 1446 1448 1451 1455 1463 1469 1456 1456 1461 1465 1464 1466 1469 1471 1474 1479
1535 1531 1529 1526 1523 1519 1515 1512 1526 1547 1530 1526 1521 1516 1512 1507 1500 1498 1495 1493 1494 1489 1486 1466 1456 1455 1454 1450 1448 1448 1451 1457 1465 1470 1466 1465 1460 1468 1471 1470 1470 1468 1471 1475 1479
1534 1530 1528 1526 1522 1518 1515 1515 1547 1537 1538 1529 1525 1517 1514 1511 1506 1504 1501 1498 1499 1497 1490 1487 1474 1461 1457 1455 1456 1456 1455 1457 1456 1453 1453 1461 1471 1477 1476 1474 1472 1473 1477 1478 1481
1531 1529 1527 1525 1521 1518 1517 1542 1548 1547 1537 1532 1525 1523 1520 1515 1516 1510 1514 1503 1502 1499 1500 1495 1476 1463 1461 1457 1457 1453 1461 1451 1460 1459 1456 1464 1474 1479 1477 1477 1478 1479 1481 1483 1485
1530 1527 1526 1524 1520 1519 1523 1539 1536 1535 1534 1533 1537 1529 1527 1523 1522 1521 1522 1505 1505 1500 1497 1487 1488 1468 1462 1457 1455 1454 1453 1460 1462 1487 1481 1469 1472 1478 1478 1481 1483 1484 1485 1486 1488
1529 1527 1526 1523 1521 1521 1541 1539 1534 1532 1532 1534 1535 1532 1528 1532 1535 1534 1526 1510 1506 1501 1496 1493 1491 1473 1467 1474 1470 1467 1468 1463 1465 1473 1467 1471 1482 1487 1488 1486 1484 1486 1487 1489 1490
1528 1528 1526 1523 1525 1532 1539 1535 1534 1532 1532 1532 1531 1530 1528 1527 1534 1527 1523 1515 1510 1507 1507 1496 1489 1495 1475 1471 1471 1470 1468 1470 1481 1481 1483 1479 1488 1486 1485 1484 1484 1486 1488 1491 1493
1528 1527 1526 1523 1538 1542 1536 1534 1533 1533 1532 1532 1531 1529 1528 1528 1534 1522 1516 1512 1510 1509 1506 1499 1505 1506 1483 1476 1472 1473 1471 1469 1474 1479 1487 1491 1490 1488 1487 1486 1487 1488 1489 1491 1493
1530 1531 1528 1526 1530 1534 1539 1537 1536 1533 1532 1532 1530 1529 1529 1526 1524 1524 1517 1513 1510 1510 1505 1499 1504 1500 1491 1492 1488 1479 1482 1476 1476 1488 1500 1499 1488 1489 1488 1489 1490 1490 1491 1493 1494
1529 1529 1529 1534 1535 1534 1536 1537 1536 1534 1532 1532 1530 1530 1532 1532 1532 1525 1518 1514 1511 1510 1507 1507 1505 1502 1493 1489 1487 1485 1492 1485 1487 1480 1487 1491 1495 1488 1488 1491 1491 1491 1493 1494 1495
1526 1527 1529 1530 1532 1533 1534 1536 1534 1534 1534 1531 1533 1529 1530 1531 1528 1521 1521 1519 1516 1512 1515 1512 1508 1506 1502 1487 1489 1491 1491 1487 1487 1485 1485 1488 1491 1490 1491 1491 1492 1492 1494 1495 1497
1521 1522 1523 1527 1531 1536 1533 1530 1531 1532 1530 1529 1528 1529 1528 1524 1522 1519 1519 1519 1518 1516 1515 1521 1516 1508 1511 1500 1506 1503 1506 1499 1493 1495 1492 1490 1490 1491 1493 1492 1493 1493 1494 1495 1496